| time (UTC) | temp F | wind direction | speed MPH | gust MPH | rain 1hr in | rain 24hr in | rain mn in | humidity % | barometer mb |
| 20260904183921 | 73 | 68 | 2.0 | 2.0 | 0.00 | 0.00 | 0.00 | 43 | 1012.5 |
| 20260904183416 | 73 | 65 | 1.0 | 1.0 | 0.00 | 0.00 | 0.00 | 45 | 1012.5 |
| 20260904182912 | 74 | 54 | 3.0 | 5.0 | 0.00 | 0.00 | 0.00 | 42 | 1012.4 |
| 20260904182407 | 73 | 72 | 2.0 | 2.0 | 0.00 | 0.00 | 0.00 | 43 | 1012.4 |
| 20260904181901 | 72 | 77 | 3.0 | 5.0 | 0.00 | 0.00 | 0.00 | 43 | 1012.8 |
| 20260904181356 | 72 | 17 | 2.0 | 2.0 | 0.00 | 0.00 | 0.00 | 42 | 1012.5 |
| 20260904180851 | 73 | 34 | 3.0 | 3.0 | 0.00 | 0.00 | 0.00 | 43 | 1012.7 |
| 20260904180347 | 72 | 34 | 2.0 | 2.0 | 0.00 | 0.00 | 0.00 | 43 | 1012.6 |
| 20260904175846 | 71 | 40 | 1.0 | 1.0 | 0.00 | 0.00 | 0.00 | 42 | 1012.6 |
| 20260904175344 | 71 | 302 | 5.0 | 6.0 | 0.00 | 0.00 | 0.00 | 42 | 1012.7 |
| 20260904174838 | 70 | 333 | 3.0 | 3.0 | 0.00 | 0.00 | 0.00 | 45 | 1012.6 |
| 20260904174329 | 71 | 345 | 7.0 | 9.0 | 0.00 | 0.00 | 0.00 | 43 | 1012.6 |
| 20260904173825 | 72 | 316 | 2.0 | 3.0 | 0.00 | 0.00 | 0.00 | 45 | 1012.4 |
| 20260904173320 | 71 | 307 | 6.0 | 7.0 | 0.00 | 0.00 | 0.00 | 44 | 1012.5 |
| 20260904172816 | 70 | 324 | 5.0 | 7.0 | 0.00 | 0.00 | 0.00 | 46 | 1012.6 |
| 20260904172314 | 69 | 12 | 5.0 | 6.0 | 0.00 | 0.00 | 0.00 | 47 | 1012.4 |
| 20260904171809 | 69 | 2 | 4.0 | 5.0 | 0.00 | 0.00 | 0.00 | 47 | 1012.7 |
| 20260904171304 | 68 | 316 | 8.0 | 9.0 | 0.00 | 0.00 | 0.00 | 48 | 1012.4 |
| 20260904170801 | 68 | 326 | 6.0 | 7.0 | 0.00 | 0.00 | 0.00 | 46 | 1012.6 |
| 20260904170257 | 68 | 2 | 3.0 | 3.0 | 0.00 | 0.00 | 0.00 | 49 | 1012.5 |
| 20260904165755 | 68 | 319 | 9.0 | 10.0 | 0.00 | 0.00 | 0.00 | 49 | 1012.7 |
| 20260904165250 | 67 | 281 | 8.0 | 9.0 | 0.00 | 0.00 | 0.00 | 48 | 1012.7 |
| 20260904164744 | 66 | 335 | 4.0 | 5.0 | 0.00 | 0.00 | 0.00 | 50 | 1012.5 |
| 20260904164240 | 66 | 302 | 5.0 | 6.0 | 0.00 | 0.00 | 0.00 | 49 | 1012.7 |
| 20260904163736 | 66 | 260 | 8.0 | 9.0 | 0.00 | 0.00 | 0.00 | 50 | 1012.9 |
| 20260904163231 | 66 | 276 | 9.0 | 11.0 | 0.00 | 0.00 | 0.00 | 51 | 1012.6 |
| 20260904162730 | 65 | 225 | 9.0 | 9.0 | 0.00 | 0.00 | 0.00 | 50 | 1012.9 |
| 20260904162225 | 65 | 266 | 9.0 | 10.0 | 0.00 | 0.00 | 0.00 | 51 | 1012.8 |
| 20260904161721 | 65 | 227 | 11.0 | 13.0 | 0.00 | 0.00 | 0.00 | 50 | 1013.0 |
| 20260904161215 | 66 | 255 | 11.0 | 13.0 | 0.00 | 0.00 | 0.00 | 51 | 1012.8 |
| 20260904160711 | 65 | 245 | 5.0 | 7.0 | 0.00 | 0.00 | 0.00 | 52 | 1012.8 |
| 20260904160207 | 65 | 256 | 9.0 | 10.0 | 0.00 | 0.00 | 0.00 | 52 | 1012.8 |
| 20260904155706 | 64 | 255 | 5.0 | 6.0 | 0.00 | 0.00 | 0.00 | 52 | 1012.9 |
| 20260904155206 | 64 | 357 | 4.0 | 6.0 | 0.00 | 0.00 | 0.00 | 53 | 1012.7 |
| 20260904154705 | 65 | 264 | 5.0 | 7.0 | 0.00 | 0.00 | 0.00 | 51 | 1012.8 |
| 20260904154205 | 64 | 14 | 3.0 | 3.0 | 0.00 | 0.00 | 0.00 | 51 | 1012.9 |
| 20260904153700 | 64 | 27 | 2.0 | 2.0 | 0.00 | 0.00 | 0.00 | 50 | 1012.7 |
| 20260904153155 | 64 | 26 | 2.0 | 3.0 | 0.00 | 0.00 | 0.00 | 53 | 1012.5 |
| 20260904152652 | 64 | 355 | 4.0 | 5.0 | 0.00 | 0.00 | 0.00 | 52 | 1012.5 |
| 20260904152147 | 63 | 14 | 1.0 | 2.0 | 0.00 | 0.00 | 0.00 | 56 | 1012.6 |
| 20260904151642 | 63 | 30 | 3.0 | 3.0 | 0.00 | 0.00 | 0.00 | 53 | 1012.5 |
| 20260904151141 | 63 | 321 | 5.0 | 7.0 | 0.00 | 0.00 | 0.00 | 53 | 1012.5 |
| 20260904150637 | 62 | 358 | 2.0 | 3.0 | 0.00 | 0.00 | 0.00 | 56 | 1012.5 |
| 20260904150132 | 62 | 308 | 5.0 | 5.0 | 0.00 | 0.00 | 0.00 | 57 | 1012.4 |
| 20260904145631 | 62 | 334 | 6.0 | 7.0 | 0.00 | 0.00 | 0.00 | 58 | 1012.1 |
| 20260904145126 | 61 | 303 | 7.0 | 7.0 | 0.00 | 0.00 | 0.00 | 58 | 1012.1 |
| 20260904144621 | 60 | 287 | 7.0 | 7.0 | 0.00 | 0.00 | 0.00 | 60 | 1011.9 |
| 20260904144117 | 58 | 338 | 4.0 | 5.0 | 0.00 | 0.00 | 0.00 | 63 | 1011.7 |
| 20260904143613 | 57 | 297 | 5.0 | 6.0 | 0.00 | 0.00 | 0.00 | 65 | 1011.6 |
| 20260904143109 | 57 | 265 | 5.0 | 7.0 | 0.00 | 0.00 | 0.00 | 64 | 1011.6 |
| 20260904142606 | 57 | 300 | 3.0 | 3.0 | 0.00 | 0.00 | 0.00 | 63 | 1011.6 |
| 20260904142106 | 57 | 281 | 4.0 | 5.0 | 0.00 | 0.00 | 0.00 | 63 | 1011.2 |
| 20260904141601 | 57 | 281 | 7.0 | 9.0 | 0.00 | 0.00 | 0.00 | 62 | 1011.0 |
| 20260904141056 | 57 | 327 | 3.0 | 3.0 | 0.00 | 0.00 | 0.00 | 63 | 1010.9 |
| 20260904140552 | 56 | 286 | 4.0 | 5.0 | 0.00 | 0.00 | 0.00 | 66 | 1010.6 |
| 20260904140046 | 56 | 7 | 2.0 | 2.0 | 0.00 | 0.00 | 0.00 | 67 | 1010.6 |
| 20260904135545 | 57 | 317 | 4.0 | 5.0 | 0.00 | 0.00 | 0.00 | 65 | 1010.7 |
| 20260904135041 | 56 | 287 | 5.0 | 6.0 | 0.00 | 0.00 | 0.00 | 64 | 1010.3 |
| 20260904134537 | 55 | 296 | 5.0 | 5.0 | 0.00 | 0.00 | 0.00 | 67 | 1010.2 |
| 20260904134031 | 55 | 290 | 3.0 | 3.0 | 0.00 | 0.00 | 0.00 | 68 | 1009.7 |
| 20260904133525 | 54 | 285 | 4.0 | 5.0 | 0.00 | 0.00 | 0.00 | 69 | 1009.7 |
| 20260904133022 | 54 | 296 | 3.0 | 3.0 | 0.00 | 0.00 | 0.00 | 71 | 1009.4 |
| 20260904132521 | 53 | 292 | 2.0 | 2.0 | 0.00 | 0.00 | 0.00 | 72 | 1009.4 |
| 20260904132016 | 52 | 243 | 3.0 | 3.0 | 0.00 | 0.00 | 0.00 | 74 | 1009.2 |
| 20260904131516 | 51 | 250 | 2.0 | 2.0 | 0.00 | 0.00 | 0.00 | 75 | 1008.7 |
| 20260904131012 | 52 | 243 | 3.0 | 5.0 | 0.00 | 0.00 | 0.00 | 73 | 1008.8 |
| 20260904130511 | 52 | 213 | 2.0 | 2.0 | 0.00 | 0.00 | 0.00 | 73 | 1008.8 |
| 20260904130006 | 52 | 133 | 0.0 | 1.0 | 0.00 | 0.00 | 0.00 | 73 | 1008.3 |
| 20260904125502 | 52 | 132 | 0.0 | 0.0 | 0.00 | 0.00 | 0.00 | 73 | 1008.2 |
| 20260904124956 | 53 | 132 | 0.0 | 0.0 | 0.00 | 0.00 | 0.00 | 72 | 1008.3 |
| 20260904124452 | 53 | 133 | 1.0 | 1.0 | 0.00 | 0.00 | 0.00 | 72 | 1008.1 |
| 20260904123948 | 53 | 133 | 3.0 | 3.0 | 0.00 | 0.00 | 0.00 | 72 | 1008.0 |
| 20260904123442 | 52 | 102 | 2.0 | 2.0 | 0.00 | 0.00 | 0.00 | 74 | 1008.0 |
| 20260904122938 | 53 | 96 | 1.0 | 1.0 | 0.00 | 0.00 | 0.00 | 74 | 1008.2 |
| 20260904122438 | 53 | 80 | 1.0 | 1.0 | 0.00 | 0.00 | 0.00 | 74 | 1008.1 |
| 20260904121938 | 53 | 80 | 0.0 | 0.0 | 0.00 | 0.00 | 0.00 | 74 | 1008.2 |
| 20260904121434 | 53 | 80 | 2.0 | 2.0 | 0.00 | 0.00 | 0.00 | 73 | 1008.1 |
| 20260904120931 | 53 | 80 | 1.0 | 1.0 | 0.00 | 0.00 | 0.00 | 74 | 1008.4 |
| 20260904120426 | 53 | 80 | 1.0 | 1.0 | 0.00 | 0.00 | 0.00 | 75 | 1008.1 |
| 20260904115921 | 52 | 80 | 1.0 | 1.0 | 0.00 | 0.00 | 0.00 | 76 | 1008.0 |
| 20260904115416 | 52 | 75 | 0.0 | 0.0 | 0.00 | 0.00 | 0.00 | 78 | 1008.2 |
| 20260904114910 | 52 | 75 | 1.0 | 1.0 | 0.00 | 0.00 | 0.00 | 78 | 1008.1 |
| 20260904114405 | 52 | 75 | 1.0 | 1.0 | 0.00 | 0.00 | 0.00 | 79 | 1008.2 |
| 20260904113901 | 53 | 76 | 1.0 | 2.0 | 0.00 | 0.00 | 0.00 | 76 | 1008.2 |
| 20260904113400 | 53 | 82 | 0.0 | 0.0 | 0.00 | 0.00 | 0.00 | 75 | 1008.2 |
| 20260904112854 | 54 | 82 | 0.0 | 0.0 | 0.00 | 0.00 | 0.00 | 73 | 1008.4 |
| 20260904112350 | 53 | 82 | 0.0 | 0.0 | 0.00 | 0.00 | 0.00 | 73 | 1008.2 |
| 20260904111845 | 54 | 82 | 2.0 | 2.0 | 0.00 | 0.00 | 0.00 | 72 | 1008.0 |
| 20260904111341 | 55 | 276 | 2.0 | 2.0 | 0.00 | 0.00 | 0.00 | 68 | 1008.2 |
| 20260904110837 | 56 | 276 | 1.0 | 1.0 | 0.00 | 0.00 | 0.00 | 65 | 1008.2 |
| 20260904110335 | 56 | 276 | 2.0 | 2.0 | 0.00 | 0.00 | 0.00 | 64 | 1008.0 |
| 20260904105830 | 56 | 276 | 2.0 | 2.0 | 0.00 | 0.00 | 0.00 | 65 | 1007.8 |
| 20260904105325 | 56 | 277 | 2.0 | 2.0 | 0.00 | 0.00 | 0.00 | 66 | 1008.1 |
| 20260904104820 | 56 | 274 | 3.0 | 3.0 | 0.00 | 0.00 | 0.00 | 66 | 1008.1 |
| 20260904104316 | 56 | 252 | 4.0 | 5.0 | 0.00 | 0.00 | 0.00 | 65 | 1008.3 |
| 20260904103812 | 57 | 254 | 5.0 | 6.0 | 0.00 | 0.00 | 0.00 | 62 | 1008.3 |
| 20260904103312 | 57 | 272 | 4.0 | 5.0 | 0.00 | 0.00 | 0.00 | 62 | 1008.3 |
| 20260904102808 | 57 | 278 | 3.0 | 3.0 | 0.00 | 0.00 | 0.00 | 62 | 1008.3 |
| 20260904102306 | 56 | 341 | 2.0 | 2.0 | 0.00 | 0.00 | 0.00 | 65 | 1008.2 |
| 20260904101759 | 56 | 265 | 4.0 | 5.0 | 0.00 | 0.00 | 0.00 | 64 | 1008.3 |
| 20260904101255 | 56 | 272 | 3.0 | 3.0 | 0.00 | 0.00 | 0.00 | 65 | 1008.3 |
| 20260904100751 | 56 | 251 | 3.0 | 3.0 | 0.00 | 0.00 | 0.00 | 65 | 1008.3 |
| 20260904100247 | 56 | 239 | 3.0 | 3.0 | 0.00 | 0.00 | 0.00 | 64 | 1008.2 |
| 20260904095746 | 56 | 107 | 1.0 | 2.0 | 0.00 | 0.00 | 0.00 | 65 | 1008.2 |
| 20260904095241 | 56 | 92 | 2.0 | 2.0 | 0.00 | 0.00 | 0.00 | 63 | 1008.2 |
| 20260904094736 | 57 | 32 | 0.0 | 0.0 | 0.00 | 0.00 | 0.00 | 63 | 1008.2 |
| 20260904094231 | 57 | 9 | 1.0 | 2.0 | 0.00 | 0.00 | 0.00 | 62 | 1008.3 |
| 20260904093728 | 58 | 7 | 0.0 | 1.0 | 0.00 | 0.00 | 0.00 | 61 | 1008.4 |
| 20260904093227 | 58 | 289 | 3.0 | 3.0 | 0.00 | 0.00 | 0.00 | 60 | 1008.6 |
| 20260904092723 | 59 | 311 | 1.0 | 1.0 | 0.00 | 0.00 | 0.00 | 59 | 1008.6 |
| 20260904092219 | 58 | 236 | 2.0 | 2.0 | 0.00 | 0.00 | 0.00 | 62 | 1008.8 |
| 20260904091715 | 56 | 128 | 2.0 | 2.0 | 0.00 | 0.00 | 0.00 | 65 | 1008.7 |
| 20260904091209 | 56 | 78 | 0.0 | 0.0 | 0.00 | 0.00 | 0.00 | 70 | 1008.6 |
| 20260904090705 | 55 | 78 | 0.0 | 0.0 | 0.00 | 0.00 | 0.00 | 74 | 1008.2 |
| 20260904090201 | 55 | 73 | 0.0 | 0.0 | 0.00 | 0.00 | 0.00 | 74 | 1008.7 |
| 20260904085656 | 55 | 73 | 0.0 | 0.0 | 0.00 | 0.00 | 0.00 | 71 | 1008.6 |
| 20260904085156 | 54 | 75 | 0.0 | 0.0 | 0.00 | 0.00 | 0.00 | 75 | 1008.8 |
| 20260904084651 | 53 | 75 | 0.0 | 0.0 | 0.00 | 0.00 | 0.00 | 76 | 1008.7 |
| 20260904084147 | 55 | 73 | 0.0 | 0.0 | 0.00 | 0.00 | 0.00 | 76 | 1008.7 |
| 20260904083643 | 56 | 72 | 0.0 | 0.0 | 0.00 | 0.00 | 0.00 | 69 | 1008.6 |
| 20260904083139 | 57 | 90 | 0.0 | 0.0 | 0.00 | 0.00 | 0.00 | 67 | 1008.8 |
| 20260904082634 | 57 | 122 | 2.0 | 2.0 | 0.00 | 0.00 | 0.00 | 66 | 1008.7 |
| 20260904082130 | 56 | 92 | 0.0 | 0.0 | 0.00 | 0.00 | 0.00 | 68 | 1008.6 |
| 20260904081625 | 55 | 88 | 0.0 | 0.0 | 0.00 | 0.00 | 0.00 | 70 | 1008.8 |
| 20260904081120 | 56 | 79 | 0.0 | 0.0 | 0.00 | 0.00 | 0.00 | 71 | 1008.9 |
| 20260904080615 | 57 | 98 | 1.0 | 1.0 | 0.00 | 0.00 | 0.00 | 68 | 1008.8 |
| 20260904080112 | 57 | 106 | 2.0 | 2.0 | 0.00 | 0.00 | 0.00 | 68 | 1008.9 |
| 20260904075607 | 56 | 100 | 1.0 | 2.0 | 0.00 | 0.00 | 0.00 | 70 | 1008.9 |
| 20260904075107 | 56 | 126 | 2.0 | 2.0 | 0.00 | 0.00 | 0.00 | 71 | 1008.8 |
| 20260904074601 | 56 | 127 | 2.0 | 2.0 | 0.00 | 0.00 | 0.00 | 71 | 1008.7 |
| 20260904074056 | 54 | 76 | 2.0 | 2.0 | 0.00 | 0.00 | 0.00 | 76 | 1009.0 |
| 20260904073550 | 57 | 88 | 2.0 | 2.0 | 0.00 | 0.00 | 0.00 | 74 | 1008.8 |
| 20260904073047 | 57 | 78 | 0.0 | 0.0 | 0.00 | 0.00 | 0.00 | 71 | 1009.0 |
| 20260904072542 | 57 | 89 | 1.0 | 1.0 | 0.00 | 0.00 | 0.00 | 70 | 1008.8 |
| 20260904072037 | 56 | 90 | 1.0 | 1.0 | 0.00 | 0.00 | 0.00 | 71 | 1009.2 |
| 20260904071533 | 57 | 101 | 3.0 | 3.0 | 0.00 | 0.00 | 0.00 | 72 | 1009.2 |
| 20260904071028 | 57 | 87 | 2.0 | 2.0 | 0.00 | 0.00 | 0.00 | 71 | 1009.2 |
| 20260904070526 | 57 | 78 | 1.0 | 1.0 | 0.00 | 0.00 | 0.00 | 73 | 1009.0 |
| 20260904070022 | 57 | 97 | 1.0 | 1.0 | 0.00 | 0.00 | 0.00 | 73 | 1009.0 |
| 20260904065516 | 57 | 70 | 0.0 | 0.0 | 0.00 | 0.00 | 0.00 | 75 | 1009.1 |
| 20260904065013 | 58 | 80 | 0.0 | 0.0 | 0.00 | 0.00 | 0.00 | 73 | 1009.2 |
| 20260904064509 | 58 | 92 | 2.0 | 2.0 | 0.00 | 0.00 | 0.00 | 73 | 1009.2 |
| 20260904064003 | 58 | 73 | 0.0 | 0.0 | 0.00 | 0.00 | 0.00 | 73 | 1009.2 |
| 20260904063500 | 58 | 64 | 0.0 | 0.0 | 0.00 | 0.00 | 0.00 | 73 | 1009.2 |
| 20260904062954 | 58 | 53 | 0.0 | 0.0 | 0.00 | 0.00 | 0.00 | 73 | 1009.1 |
| 20260904062450 | 58 | 31 | 1.0 | 1.0 | 0.00 | 0.00 | 0.00 | 73 | 1009.2 |
| 20260904061946 | 58 | 38 | 0.0 | 1.0 | 0.00 | 0.00 | 0.00 | 71 | 1009.4 |
| 20260904061442 | 58 | 36 | 1.0 | 2.0 | 0.00 | 0.00 | 0.00 | 71 | 1009.2 |
| 20260904060938 | 59 | 42 | 0.0 | 0.0 | 0.00 | 0.00 | 0.00 | 70 | 1009.4 |
| 20260904060434 | 60 | 37 | 1.0 | 1.0 | 0.00 | 0.00 | 0.00 | 68 | 1009.4 |
| 20260904055929 | 60 | 0 | 2.0 | 2.0 | 0.00 | 0.00 | 0.00 | 64 | 1009.3 |
| 20260904055425 | 60 | 38 | 0.0 | 0.0 | 0.00 | 0.00 | 0.00 | 63 | 1009.2 |
| 20260904054921 | 60 | 39 | 0.0 | 0.0 | 0.00 | 0.00 | 0.00 | 62 | 1009.4 |
| 20260904054416 | 61 | 39 | 0.0 | 0.0 | 0.00 | 0.00 | 0.00 | 61 | 1009.4 |
| 20260904053912 | 61 | 356 | 1.0 | 1.0 | 0.00 | 0.00 | 0.00 | 60 | 1009.4 |
| 20260904053410 | 61 | 0 | 0.0 | 0.0 | 0.00 | 0.00 | 0.00 | 61 | 1009.6 |
| 20260904052907 | 62 | 359 | 1.0 | 1.0 | 0.00 | 0.00 | 0.00 | 60 | 1009.4 |
| 20260904052403 | 62 | 220 | 1.0 | 1.0 | 0.00 | 0.00 | 0.00 | 60 | 1009.7 |
| 20260904051859 | 62 | 20 | 0.0 | 0.0 | 0.00 | 0.00 | 0.00 | 58 | 1009.8 |
| 20260904051354 | 62 | 19 | 1.0 | 1.0 | 0.00 | 0.00 | 0.00 | 58 | 1009.8 |
| 20260904050849 | 62 | 264 | 3.0 | 3.0 | 0.00 | 0.00 | 0.00 | 59 | 1009.9 |
| 20260904050346 | 62 | 291 | 3.0 | 3.0 | 0.00 | 0.00 | 0.00 | 57 | 1009.7 |
| 20260904045845 | 62 | 312 | 2.0 | 2.0 | 0.00 | 0.00 | 0.00 | 60 | 1009.9 |
| 20260904045341 | 62 | 330 | 2.0 | 2.0 | 0.00 | 0.00 | 0.00 | 59 | 1009.7 |
| 20260904044840 | 62 | 250 | 5.0 | 5.0 | 0.00 | 0.00 | 0.00 | 59 | 1009.4 |
| 20260904044337 | 62 | 103 | 1.0 | 1.0 | 0.00 | 0.00 | 0.00 | 58 | 1009.4 |
| 20260904043833 | 62 | 93 | 0.0 | 0.0 | 0.00 | 0.00 | 0.00 | 59 | 1009.8 |
| 20260904043330 | 62 | 93 | 3.0 | 3.0 | 0.00 | 0.00 | 0.00 | 58 | 1009.9 |
| 20260904042829 | 62 | 83 | 1.0 | 2.0 | 0.00 | 0.00 | 0.00 | 58 | 1009.8 |
| 20260904042326 | 62 | 83 | 1.0 | 1.0 | 0.00 | 0.00 | 0.00 | 57 | 1009.8 |
| 20260904041820 | 63 | 94 | 3.0 | 3.0 | 0.00 | 0.00 | 0.00 | 56 | 1010.1 |
| 20260904041316 | 64 | 83 | 3.0 | 3.0 | 0.00 | 0.00 | 0.00 | 53 | 1010.3 |
| 20260904040812 | 64 | 57 | 3.0 | 3.0 | 0.00 | 0.00 | 0.00 | 54 | 1010.3 |
| 20260904040307 | 65 | 46 | 1.0 | 1.0 | 0.00 | 0.00 | 0.00 | 52 | 1010.6 |
| 20260904035803 | 65 | 40 | 2.0 | 2.0 | 0.00 | 0.00 | 0.00 | 51 | 1010.3 |
| 20260904035259 | 65 | 72 | 1.0 | 1.0 | 0.00 | 0.00 | 0.00 | 53 | 1010.5 |
| 20260904034757 | 67 | 53 | 1.0 | 2.0 | 0.00 | 0.00 | 0.00 | 47 | 1010.2 |
| 20260904034253 | 67 | 330 | 3.0 | 3.0 | 0.00 | 0.00 | 0.00 | 47 | 1010.5 |
| 20260904033749 | 67 | 346 | 3.0 | 3.0 | 0.00 | 0.00 | 0.00 | 46 | 1010.6 |
| 20260904033246 | 67 | 313 | 7.0 | 8.0 | 0.00 | 0.00 | 0.00 | 45 | 1010.5 |
| 20260904032742 | 68 | 253 | 10.0 | 11.0 | 0.00 | 0.00 | 0.00 | 44 | 1010.6 |
| 20260904032240 | 67 | 302 | 5.0 | 7.0 | 0.00 | 0.00 | 0.00 | 47 | 1010.7 |
| 20260904031729 | 67 | 271 | 5.0 | 7.0 | 0.00 | 0.00 | 0.00 | 47 | 1010.8 |
| 20260904031225 | 67 | 309 | 3.0 | 3.0 | 0.00 | 0.00 | 0.00 | 45 | 1010.8 |
| 20260904030720 | 67 | 292 | 3.0 | 3.0 | 0.00 | 0.00 | 0.00 | 46 | 1010.6 |
| 20260904030216 | 67 | 255 | 4.0 | 5.0 | 0.00 | 0.00 | 0.00 | 45 | 1010.9 |
| 20260904025712 | 67 | 301 | 4.0 | 5.0 | 0.00 | 0.00 | 0.00 | 44 | 1010.7 |
| 20260904025207 | 68 | 292 | 3.0 | 3.0 | 0.00 | 0.00 | 0.00 | 44 | 1010.3 |
| 20260904024702 | 68 | 273 | 3.0 | 3.0 | 0.00 | 0.00 | 0.00 | 44 | 1010.5 |
| 20260904024157 | 68 | 332 | 2.0 | 2.0 | 0.00 | 0.00 | 0.00 | 43 | 1010.3 |
| 20260904023654 | 69 | 291 | 5.0 | 5.0 | 0.00 | 0.00 | 0.00 | 41 | 1010.5 |
| 20260904023149 | 70 | 256 | 5.0 | 6.0 | 0.00 | 0.00 | 0.00 | 38 | 1010.2 |
| 20260904022643 | 71 | 264 | 5.0 | 6.0 | 0.00 | 0.00 | 0.00 | 37 | 1010.3 |
| 20260904022140 | 70 | 268 | 6.0 | 7.0 | 0.00 | 0.00 | 0.00 | 36 | 1010.0 |
| 20260904021636 | 70 | 287 | 4.0 | 5.0 | 0.00 | 0.00 | 0.00 | 39 | 1010.2 |
| 20260904021131 | 69 | 260 | 4.0 | 5.0 | 0.00 | 0.00 | 0.00 | 39 | 1010.2 |
| 20260904020627 | 69 | 119 | 1.0 | 2.0 | 0.00 | 0.00 | 0.00 | 43 | 1010.1 |
| 20260904020120 | 69 | 65 | 0.0 | 0.0 | 0.00 | 0.00 | 0.00 | 40 | 1010.0 |
| 20260904015615 | 70 | 65 | 0.0 | 0.0 | 0.00 | 0.00 | 0.00 | 40 | 1010.0 |
| 20260904015114 | 71 | 4 | 1.0 | 1.0 | 0.00 | 0.00 | 0.00 | 38 | 1009.9 |
| 20260904014608 | 72 | 2 | 1.0 | 2.0 | 0.00 | 0.00 | 0.00 | 38 | 1010.0 |
| 20260904014104 | 72 | 309 | 2.0 | 2.0 | 0.00 | 0.00 | 0.00 | 38 | 1009.9 |
| 20260904013601 | 73 | 111 | 0.0 | 0.0 | 0.00 | 0.00 | 0.00 | 35 | 1009.9 |
| 20260904013056 | 74 | 145 | 2.0 | 2.0 | 0.00 | 0.00 | 0.00 | 34 | 1009.9 |
| 20260904012556 | 74 | 162 | 2.0 | 2.0 | 0.00 | 0.00 | 0.00 | 34 | 1009.9 |
| 20260904012050 | 75 | 171 | 1.0 | 2.0 | 0.00 | 0.00 | 0.00 | 33 | 1009.8 |
| 20260904011549 | 74 | 235 | 4.0 | 5.0 | 0.00 | 0.00 | 0.00 | 33 | 1009.6 |
| 20260904011045 | 75 | 227 | 5.0 | 6.0 | 0.00 | 0.00 | 0.00 | 33 | 1009.6 |
| 20260904010541 | 74 | 230 | 7.0 | 9.0 | 0.00 | 0.00 | 0.00 | 33 | 1009.7 |
| 20260904010037 | 74 | 191 | 3.0 | 3.0 | 0.00 | 0.00 | 0.00 | 34 | 1009.6 |
| 20260904005531 | 74 | 213 | 4.0 | 5.0 | 0.00 | 0.00 | 0.00 | 33 | 1009.6 |
| 20260904005027 | 74 | 219 | 4.0 | 5.0 | 0.00 | 0.00 | 0.00 | 33 | 1009.6 |
| 20260904004522 | 74 | 197 | 4.0 | 5.0 | 0.00 | 0.00 | 0.00 | 33 | 1009.4 |
| 20260904004017 | 75 | 202 | 6.0 | 7.0 | 0.00 | 0.00 | 0.00 | 32 | 1009.6 |
| 20260904003513 | 75 | 218 | 6.0 | 8.0 | 0.00 | 0.00 | 0.00 | 32 | 1009.6 |
| 20260904003008 | 75 | 189 | 4.0 | 6.0 | 0.00 | 0.00 | 0.00 | 33 | 1009.7 |
| 20260904002504 | 75 | 222 | 4.0 | 6.0 | 0.00 | 0.00 | 0.00 | 33 | 1009.3 |
| 20260904002002 | 75 | 234 | 8.0 | 10.0 | 0.00 | 0.00 | 0.00 | 32 | 1009.6 |
| 20260904001459 | 75 | 179 | 5.0 | 6.0 | 0.00 | 0.00 | 0.00 | 32 | 1009.3 |
| 20260904000953 | 75 | 187 | 2.0 | 2.0 | 0.00 | 0.00 | 0.00 | 32 | 1009.4 |
| 20260904000455 | 75 | 185 | 2.0 | 2.0 | 0.00 | 0.00 | 0.00 | 32 | 1009.4 |
| 20260903235948 | 75 | 136 | 0.0 | 1.0 | 0.00 | 0.00 | 0.00 | 33 | 1009.6 |
| 20260903235444 | 76 | 136 | 1.0 | 1.0 | 0.00 | 0.00 | 0.00 | 32 | 1009.7 |
| 20260903234944 | 76 | 114 | 0.0 | 0.0 | 0.00 | 0.00 | 0.00 | 32 | 1009.4 |
| 20260903234439 | 75 | 120 | 1.0 | 1.0 | 0.00 | 0.00 | 0.00 | 31 | 1009.4 |
| 20260903233936 | 76 | 141 | 2.0 | 2.0 | 0.00 | 0.00 | 0.00 | 30 | 1009.7 |
| 20260903233431 | 77 | 159 | 2.0 | 2.0 | 0.00 | 0.00 | 0.00 | 30 | 1009.8 |
| 20260903232926 | 76 | 208 | 4.0 | 5.0 | 0.00 | 0.00 | 0.00 | 29 | 1009.7 |
| 20260903232421 | 76 | 149 | 3.0 | 5.0 | 0.00 | 0.00 | 0.00 | 30 | 1009.4 |
| 20260903231921 | 77 | 156 | 8.0 | 9.0 | 0.00 | 0.00 | 0.00 | 29 | 1009.8 |
| 20260903231416 | 77 | 154 | 5.0 | 7.0 | 0.00 | 0.00 | 0.00 | 31 | 1009.7 |
| 20260903230910 | 77 | 178 | 5.0 | 7.0 | 0.00 | 0.00 | 0.00 | 30 | 1009.8 |
| 20260903230406 | 76 | 207 | 11.0 | 13.0 | 0.00 | 0.00 | 0.00 | 30 | 1009.7 |
| 20260903225903 | 75 | 235 | 7.0 | 9.0 | 0.00 | 0.00 | 0.00 | 32 | 1009.7 |
| 20260903225358 | 75 | 358 | 3.0 | 5.0 | 0.00 | 0.00 | 0.00 | 31 | 1009.7 |
| 20260903224854 | 76 | 288 | 4.0 | 5.0 | 0.00 | 0.00 | 0.00 | 31 | 1009.9 |
| 20260903224350 | 76 | 311 | 5.0 | 7.0 | 0.00 | 0.00 | 0.00 | 30 | 1009.9 |
| 20260903223845 | 75 | 293 | 6.0 | 7.0 | 0.00 | 0.00 | 0.00 | 29 | 1009.7 |
| 20260903223344 | 76 | 298 | 6.0 | 7.0 | 0.00 | 0.00 | 0.00 | 30 | 1009.8 |
| 20260903222839 | 76 | 276 | 3.0 | 3.0 | 0.00 | 0.00 | 0.00 | 29 | 1009.9 |
| 20260903222338 | 76 | 262 | 6.0 | 6.0 | 0.00 | 0.00 | 0.00 | 29 | 1009.9 |
| 20260903221833 | 75 | 271 | 7.0 | 7.0 | 0.00 | 0.00 | 0.00 | 30 | 1009.7 |
| 20260903221332 | 76 | 245 | 5.0 | 5.0 | 0.00 | 0.00 | 0.00 | 29 | 1009.8 |
| 20260903220830 | 77 | 302 | 7.0 | 8.0 | 0.00 | 0.00 | 0.00 | 29 | 1009.8 |
| 20260903220325 | 77 | 248 | 7.0 | 8.0 | 0.00 | 0.00 | 0.00 | 29 | 1010.0 |
| 20260903215823 | 75 | 285 | 5.0 | 6.0 | 0.00 | 0.00 | 0.00 | 30 | 1009.9 |
| 20260903215320 | 78 | 256 | 5.0 | 7.0 | 0.00 | 0.00 | 0.00 | 28 | 1010.1 |
| 20260903214818 | 77 | 259 | 7.0 | 8.0 | 0.00 | 0.00 | 0.00 | 29 | 1010.1 |
| 20260903214314 | 76 | 237 | 10.0 | 10.0 | 0.00 | 0.00 | 0.00 | 28 | 1010.0 |
| 20260903213808 | 75 | 226 | 7.0 | 8.0 | 0.00 | 0.00 | 0.00 | 31 | 1010.0 |
| 20260903213303 | 75 | 279 | 9.0 | 10.0 | 0.00 | 0.00 | 0.00 | 30 | 1010.0 |
| 20260903212753 | 75 | 230 | 9.0 | 9.0 | 0.00 | 0.00 | 0.00 | 29 | 1010.1 |
| 20260903212249 | 75 | 257 | 7.0 | 9.0 | 0.00 | 0.00 | 0.00 | 32 | 1010.1 |
| 20260903211743 | 75 | 257 | 10.0 | 11.0 | 0.00 | 0.00 | 0.00 | 29 | 1010.0 |
| 20260903211240 | 75 | 237 | 6.0 | 9.0 | 0.00 | 0.00 | 0.00 | 31 | 1010.0 |
| 20260903210736 | 75 | 277 | 7.0 | 7.0 | 0.00 | 0.00 | 0.00 | 30 | 1009.9 |
| 20260903210230 | 75 | 290 | 5.0 | 6.0 | 0.00 | 0.00 | 0.00 | 29 | 1009.8 |
| 20260903205725 | 75 | 286 | 7.0 | 9.0 | 0.00 | 0.00 | 0.00 | 30 | 1010.1 |
| 20260903205224 | 75 | 308 | 3.0 | 3.0 | 0.00 | 0.00 | 0.00 | 29 | 1010.0 |
| 20260903204719 | 75 | 272 | 3.0 | 5.0 | 0.00 | 0.00 | 0.00 | 32 | 1009.9 |
| 20260903204216 | 75 | 11 | 2.0 | 2.0 | 0.00 | 0.00 | 0.00 | 29 | 1010.0 |
| 20260903203711 | 76 | 305 | 9.0 | 10.0 | 0.00 | 0.00 | 0.00 | 29 | 1010.0 |
| 20260903203206 | 75 | 300 | 7.0 | 8.0 | 0.00 | 0.00 | 0.00 | 31 | 1010.1 |
| 20260903202700 | 74 | 251 | 4.0 | 5.0 | 0.00 | 0.00 | 0.00 | 32 | 1010.1 |
| 20260903202156 | 74 | 298 | 7.0 | 10.0 | 0.00 | 0.00 | 0.00 | 31 | 1010.2 |
| 20260903201655 | 76 | 286 | 12.0 | 13.0 | 0.00 | 0.00 | 0.00 | 29 | 1010.0 |
| 20260903201150 | 76 | 193 | 8.0 | 11.0 | 0.00 | 0.00 | 0.00 | 28 | 1010.1 |
| 20260903200644 | 75 | 251 | 12.0 | 13.0 | 0.00 | 0.00 | 0.00 | 29 | 1010.1 |
| 20260903200140 | 76 | 254 | 9.0 | 9.0 | 0.00 | 0.00 | 0.00 | 30 | 1010.2 |
| 20260903195636 | 76 | 213 | 6.0 | 8.0 | 0.00 | 0.00 | 0.00 | 29 | 1010.1 |
| 20260903195132 | 77 | 270 | 7.0 | 8.0 | 0.00 | 0.00 | 0.00 | 29 | 1010.2 |
| 20260903194626 | 76 | 112 | 2.0 | 3.0 | 0.00 | 0.00 | 0.00 | 29 | 1010.5 |
| 20260903194121 | 75 | 234 | 5.0 | 6.0 | 0.00 | 0.00 | 0.00 | 31 | 1010.3 |
| 20260903193617 | 75 | 191 | 8.0 | 9.0 | 0.00 | 0.00 | 0.00 | 30 | 1010.5 |
| 20260903193112 | 75 | 183 | 7.0 | 8.0 | 0.00 | 0.00 | 0.00 | 29 | 1010.6 |
| 20260903192608 | 74 | 255 | 5.0 | 7.0 | 0.00 | 0.00 | 0.00 | 32 | 1010.5 |
| 20260903192103 | 73 | 246 | 5.0 | 7.0 | 0.00 | 0.00 | 0.00 | 33 | 1010.5 |
| 20260903191600 | 73 | 290 | 8.0 | 9.0 | 0.00 | 0.00 | 0.00 | 32 | 1010.9 |
| 20260903191054 | 74 | 300 | 6.0 | 7.0 | 0.00 | 0.00 | 0.00 | 32 | 1010.7 |
| 20260903190554 | 74 | 25 | 1.0 | 2.0 | 0.00 | 0.00 | 0.00 | 34 | 1010.6 |
| 20260903190053 | 73 | 295 | 4.0 | 6.0 | 0.00 | 0.00 | 0.00 | 32 | 1010.8 |
| 20260903185549 | 73 | 2 | 3.0 | 3.0 | 0.00 | 0.00 | 0.00 | 35 | 1010.7 |
| 20260903185044 | 73 | 58 | 0.0 | 0.0 | 0.00 | 0.00 | 0.00 | 35 | 1010.7 |
| 20260903184540 | 74 | 81 | 4.0 | 6.0 | 0.00 | 0.00 | 0.00 | 37 | 1010.6 |